Location: Allos
(44.2333°N, 6.6333°E)
Time: 05:01:46
(UTC+00:00)

Okean O Rocket - Pass Details

Date: 01 December 2020
Orbit: 622 x 645 km, 98.2° (Epoch: 24 January)

Event Time Altitude Azimuth Distance (km) Brightness Sun altitude
Rises 16:19:15 0° 142° (SE) 2,899 4.9 -4.5°
Reaches altitude 10° 16:21:34 10° 133° (SE) 2,000 4.0 -4.9°
Maximum altitude 16:25:29 34° 69° (ENE) 1,039 2.2 -5.5°
Drops below altitude 10° 16:29:28 10° 4° (N) 2,026 3.9 -6.2°
Sets 16:31:49 0° 356° (N) 2,943 4.8 -6.6°
